Akron Canton, OH

5:50 PM EDT on April 25, 2017 (GMT -0400)
Akron-Canton Regional

Weather History for KCAK - December, 2013

Change the Weather History Date:

Tuesday, December 31, 2013

  Actual Average Record
Temperature  
Mean Temperature 20 °F 27 °F  
Max Temperature 23 °F 34 °F 62 °F (1965)
Min Temperature 17 °F 20 °F -7 °F (1976)
Degree Days  
Heating Degree Days 45 38  
Month to date heating degree days 1029 1073  
Since 1 July heating degree days 2279 2330  
Cooling Degree Days 0 0  
Month to date cooling degree days 0 0  
Year to date cooling degree days 829 652  
Moisture  
Dew Point 15 °F    
Average Humidity 78    
Maximum Humidity 88    
Minimum Humidity 67    
Precipitation  
Precipitation 0.05 in 0.09 in 0.68 in (1978)
Month to date precipitation 3.49 2.84  
Year to date precipitation 42.19 39.62  
Snow  
Snow 1.20 in 0.40 in - ()
Month to date snowfall 12.5 10.2  
Since 1 July snowfall 23.2 13.6  
Snow Depth 1.00 in    
Sea Level Pressure  
Sea Level Pressure 30.22 in    
Wind  
Wind Speed 12 mph (WSW)    
Max Wind Speed 21 mph    
Max Gust Speed 21 mph    
Visibility 6 miles    
Events Snow    
T = Trace of Precipitation, MM = Missing Value Source: NWS Daily Summary

Daily Weather History Graph

Daily Weather History Graph

Search for Another Location

Airport or City:

Trip Planner

Search our weather history database for the weather conditions in past years. The results will help you decide how hot, cold, wet, or windy it might be!

Date:

Astronomy

Dec. 31, 2013 Rise Set
Actual Time 7:50 AM EST 5:07 PM EST
Civil Twilight 7:19 AM EST 5:38 PM EST
Nautical Twilight 6:44 AM EST 6:13 PM EST
Astronomical Twilight 6:11 AM EST 6:46 PM EST
Moon 6:41 AM EST (12/31) 4:42 PM EST (12/31)
Length of Visible Light 10h 19m
Length of Day
9h 17m
Waning Crescent, 1% of the Moon is Illuminated
Dec 31
Waning Crescent
Jan 1
New
Jan 7
First Quarter
Jan 15
Full
Jan 24
Last Quarter

Hourly Weather History & Observations

Time (EST) Temp. Windchill Dew Point Humidity Pressure Visibility Wind Dir Wind Speed Gust Speed Precip Events Conditions
12:51 AM 21.0 °F 16.2 °F 15.1 °F 78% 30.13 in 10.0 mi South 3.5 mph - 0.00 in Snow Light Snow
1:51 AM 22.1 °F 17.4 °F 15.1 °F 74% 30.12 in 10.0 mi South 3.5 mph - 0.00 in   Overcast
2:51 AM 23.0 °F 15.8 °F 18.9 °F 84% 30.12 in 5.0 mi SSW 5.8 mph - 0.00 in Snow Light Snow
3:51 AM 23.0 °F 13.1 °F 18.9 °F 84% 30.11 in 5.0 mi SW 9.2 mph - 0.00 in Snow Light Snow
4:51 AM 22.1 °F 12.0 °F 17.1 °F 81% 30.09 in 5.0 mi SW 9.2 mph - N/A Snow Light Snow
5:51 AM 22.1 °F 9.5 °F 17.1 °F 81% 30.09 in 5.0 mi SW 13.8 mph - 0.00 in Snow Light Snow
6:00 AM 23.0 °F 10.6 °F 17.6 °F 80% 30.03 in 2.0 mi SW 13.8 mph - N/A Snow Light Snow
6:51 AM 21.0 °F 9.3 °F 18.3 °F 89% 30.09 in 2.0 mi SW 11.5 mph - 0.01 in Snow Light Snow
7:51 AM 21.0 °F 7.1 °F 16.0 °F 81% 30.11 in 2.0 mi WSW 16.1 mph - 0.01 in Snow Light Snow
8:51 AM 19.9 °F 4.8 °F 15.1 °F 81% 30.15 in 2.0 mi West 18.4 mph - 0.00 in Snow Light Snow
9:51 AM 19.0 °F 4.5 °F 15.1 °F 85% 30.20 in 2.0 mi West 16.1 mph - 0.00 in Snow Light Snow
10:51 AM 19.0 °F 3.6 °F 14.0 °F 81% 30.24 in 2.0 mi WSW 18.4 mph - 0.00 in Snow Light Snow
11:38 AM 17.6 °F 0.9 °F 14.0 °F 86% 30.19 in 3.0 mi West 20.7 mph - 0.01 in Snow Light Snow
11:51 AM 18.0 °F 2.2 °F 14.0 °F 84% 30.26 in 5.0 mi West 18.4 mph - 0.01 in Snow Light Snow
12:51 PM 19.0 °F 4.5 °F 12.0 °F 74% 30.28 in 7.0 mi WNW 16.1 mph - 0.00 in Snow Light Snow
1:51 PM 19.9 °F 4.8 °F 12.0 °F 71% 30.30 in 10.0 mi West 18.4 mph - 0.00 in Snow Light Snow
2:51 PM 19.9 °F 6.7 °F 12.0 °F 71% 30.29 in 10.0 mi WNW 13.8 mph - 0.00 in Snow Light Snow
3:51 PM 19.0 °F 4.5 °F 10.9 °F 71% 30.30 in 10.0 mi West 16.1 mph - 0.00 in Snow Light Snow
4:51 PM 18.0 °F 4.2 °F 14.0 °F 84% 30.31 in 10.0 mi WSW 13.8 mph - N/A Snow Light Snow
5:51 PM 17.1 °F 3.6 °F 12.0 °F 81% 30.31 in 8.0 mi WSW 12.7 mph - N/A Snow Light Snow
6:51 PM 17.1 °F 5.0 °F 12.0 °F 81% 30.31 in 8.0 mi SW 10.4 mph - 0.00 in   Mostly Cloudy
7:51 PM 17.1 °F 5.0 °F 12.0 °F 81% 30.32 in 8.0 mi SW 10.4 mph - N/A   Overcast
8:51 PM 18.0 °F 6.1 °F 14.0 °F 84% 30.32 in 8.0 mi WSW 10.4 mph - N/A Snow Light Snow
9:51 PM 21.0 °F 9.9 °F 17.1 °F 85% 30.32 in 5.0 mi WSW 10.4 mph - 0.00 in Snow Light Snow
10:51 PM 21.0 °F 10.6 °F 18.0 °F 88% 30.32 in 3.0 mi West 9.2 mph - N/A Snow Light Snow
11:51 PM 21.0 °F 12.4 °F 18.0 °F 88% 30.33 in 3.0 mi West 6.9 mph - 0.01 in Snow Light Snow